Powrót do katalogu

STARLINK-5413

AktywnyŁącznośćVLEO
NORAD 54808·PAYLOAD·🇺🇸 United States

Wystrzelony Dec 17, 2022 z Cape Canaveral Space Force Station

Loading…

Następne Przeloty (najbliższe 24 godziny)

TLE

ŚwieżeSource: CelesTrak SupGP

Epoka: Sep 14, 2026, 22:03 UTC

1 54808C 22175BC  26257.91923611  .00722990  00000+0  26403-1 0  2577
2 54808  53.1608 243.3496 0001271  97.9472  50.8613 15.27216667    17

Śledź STARLINK-5413 w czasie rzeczywistym z AllMySat

Download on the App Store